Location: Mermaid+Beach
(28.0410°S, 153.4380°E)
Time: 16:57:05
(UTC+10:00)

ISS - Visible Passes

Search period start: 22 July 2017 00:00
Search period end: 01 August 2017 00:00
Orbit: 400 x 408 km, 51.6° (Epoch: 22 July)

Date Brightness Start Highest point End Pass type
(mag) Time Alt. Az. Time Alt. Az. Time Alt. Az.
22 Jul -0.5 17:57:21 10° W 17:59:15 14° NW 18:01:08 10° NNW visible
27 Jul -0.5 05:26:42 10° NNE 05:28:34 14° NE 05:30:27 10° E visible
29 Jul -2.6 05:16:55 10° NNW 05:20:03 44° NE 05:23:16 10° ESE visible
30 Jul -1.2 04:27:29 18° NE 04:27:49 19° NE 04:30:13 10° E visible
30 Jul -2.6 06:01:22 10° W 06:04:07 24° SW 06:06:55 10° SSE visible
31 Jul -3.7 05:11:24 51° WSW 05:11:39 53° SW 05:14:56 10° SSE visible
